This is the latest recevied weather packets stored in our database for station/object K5OLV. If no packets are shown the sender has not sent any weather packets the latest 10 day(s).
| Time | Temp. | Humidity | Pressure | Rain* | Wind** | Luminosity | Snow |
|---|---|---|---|---|---|---|---|
| 1777652155 | 15° C | 60% | 1012.6 hPa | 0 mm | - | 409 W/m² | - |
| 1777651851 | 15° C | 64% | 1012.6 hPa | 0 mm | - | 400 W/m² | - |
| 1777651548 | 14.44° C | 63% | 1012.7 hPa | 0 mm | - | 470 W/m² | - |
| 1777651245 | 15° C | 70% | 1012.6 hPa | 0 mm | - | 471 W/m² | - |
| 1777650941 | 14.44° C | 66% | 1013 hPa | 0 mm | - | 571 W/m² | - |
| 1777650639 | 14.44° C | 71% | 1013 hPa | 0 mm | - | 487 W/m² | - |
| 1777650336 | 14.44° C | 70% | 1013.1 hPa | 0 mm | - | 461 W/m² | - |
| 1777650033 | 14.44° C | 71% | 1013.1 hPa | 0 mm | - | 423 W/m² | - |
| 1777649731 | 13.89° C | 72% | 1012.8 hPa | 0 mm | - | 400 W/m² | - |
| 1777649427 | 13.89° C | 71% | 1013 hPa | 0 mm | - | 354 W/m² | - |
| 1777649124 | 14.44° C | 72% | 1012.5 hPa | 0 mm | - | 506 W/m² | - |
| 1777648821 | 14.44° C | 73% | 1012.6 hPa | 0 mm | - | 570 W/m² | - |
| 1777648518 | 13.89° C | 73% | 1012.8 hPa | 0 mm | - | 606 W/m² | - |
| 1777648215 | 13.89° C | 72% | 1012.8 hPa | 0 mm | - | 639 W/m² | - |
| 1777647910 | 13.89° C | 73% | 1012.7 hPa | 0 mm | - | 732 W/m² | - |
| 1777647607 | 13.33° C | 72% | 1012.7 hPa | 0 mm | - | 634 W/m² | - |
| 1777647303 | 13.89° C | 75% | 1012.7 hPa | 0 mm | - | 458 W/m² | - |
| 1777647001 | 13.89° C | 76% | 1012.6 hPa | 0 mm | - | 598 W/m² | - |
| 1777646696 | 13.33° C | 78% | 1012.6 hPa | 0 mm | - | 343 W/m² | - |
| 1777646392 | 12.78° C | 76% | 1013 hPa | 0 mm | - | 321 W/m² | - |
| 1777646089 | 12.78° C | 77% | 1012.9 hPa | 0 mm | - | 352 W/m² | - |
| 1777645785 | 12.78° C | 77% | 1012.9 hPa | 0 mm | - | 313 W/m² | - |
| 1777645484 | 12.22° C | 79% | 1012.7 hPa | 0 mm | - | 505 W/m² | - |
| 1777645179 | 12.22° C | 77% | 1012.8 hPa | 0 mm | - | 406 W/m² | - |
| 1777644875 | 12.78° C | 78% | 1012.9 hPa | 0 mm | - | 501 W/m² | - |
* Rain latest hour (hover to see other rain measurements)
** Current wind speed in m/s (hover to see current wind gust speed)